Vertical_Velocity
-0 -1 1 1 1 0 -0 -1 0 0 0 0 -1 -1 -1 -1 -1 -1 -1 -0 -0 -1 -1 -1 -1 -0 -1 -1 0 -0 -0 1 0 -0 -1 -1 -0 -0 -1 1 1 1 -0
1 -0 -1 -1 -1 -0 -0 -1 -0 -1 -1 -0 -0 -0 -0 -0 -1 -1 -1 -1 -1 -0 0 -0 -0 -0 -1 -1 -1 -1 -1 -1 -0 1 0 -1 -2 -1 -1 1 -0 1 1
-2 -1 -1 -0 -1 -0 -0 -2 0 0 -2 -1 -1 -0 -0 -0 -0 -0 -1 -1 -1 -1 -1 -0 -0 -2 -2 -1 -0 -0 -1 -1 -1 -1 -0 -0 0 -1 -2 -1 -1 -1 -0
-1 -1 -1 -1 -0 -1 -1 -2 -1 -1 -1 -1 -1 -1 -1 -1 0 -0 -0 -0 -0 -0 -0 -1 -1 -1 -1 -0 -2 -1 -1 -1 -1 -1 -0 1 -1 -1 0 1 -1 -2 -1
0 -1 -1 -1 -2 -1 -0 -0 -1 -1 -1 -1 -1 -1 -1 -1 -1 -1 -0 -0 -0 -0 -0 -0 -0 0 0 0 -0 -0 0 -0 -0 -1 -1 -2 3 -1 -1 -1 -1 0 1
0 0 0 0 -1 -1 -2 -1 -1 -1 0 0 -1 -1 0 -2 -1 -1 -2 -2 -2 -0 -1 -1 -1 -0 -1 -0 -0 0 -0 -0 -1 -1 -1 0 -3 2 1 0 0 -1 -0
1 1 0 -0 -1 -1 -2 -2 -2 -1 -1 -0 0 1 -1 -1 -1 -1 -1 -2 -1 -2 -1 -0 -0 -1 -0 -0 0 0 0 1 1 1 -0 -0 -1 -1 -1 -0 1 1 0
1 0 0 1 0 -1 -1 -1 -2 -1 -1 -1 -1 -1 -1 -1 -1 -0 -0 -1 -0 -2 -1 -0 2 0 -0 -1 -0 0 -0 -1 -0 -0 -1 -1 -0 1 0 -1 -1 -1 1
0 0 0 -1 -1 -2 0 -1 0 -1 -1 -1 -1 -1 -1 -2 -0 1 -0 1 -1 -1 -1 -1 -1 -2 -2 -2 0 1 3 1 1 0 1 0 -2 -1 -1 -0 -0 -1 -1
0 -1 0 1 0 1 0 -1 -0 -1 -1 -0 -1 -2 -3 -2 -1 -1 -0 -0 -1 -0 -2 -2 -2 -1 -3 -1 -2 -2 -3 -2 0 1 -0 1 0 -0 1 -1 -1 -1 -0
0 0 -0 1 1 1 0 0 -1 -0 -2 -1 -0 -0 -1 -1 -1 0 0 1 2 0 1 -1 -2 -1 -1 0 -0 -1 -1 -1 -2 -1 -0 1 -2 2 3 -0 -0 -1 -2
1 1 0 0 0 1 1 1 -0 2 -0 0 2 3 -1 -1 -0 -1 -1 -2 -1 -0 -0 1 -1 0 -0 -1 -0 -2 -0 0 -1 0 -2 7 1 4 2 2 5 1 -1
1 0 0 -0 -1 -1 -1 -1 -2 -1 -1 -1 -1 -1 -0 0 -0 -0 0 -0 -1 0 -1 1 0 -0 0 -1 -1 -0 2 -0 -2 -5 -2 -1 3 1 3 4 1 2 3
1 -1 -0 0 -1 -1 -1 -1 -2 -2 -1 -1 -2 0 -0 -0 2 -1 -2 -1 -1 -2 -1 -3 -0 -1 -1 -1 2 2 1 -1 -1 1 -1 -2 -3 -2 -1 -2 -1 -3 -4
1 1 0 0 0 -0 -0 -0 -1 -1 -2 -0 -1 -0 -0 -1 -0 -1 -1 0 1 -2 -0 0 -1 -1 0 -0 -2 -1 1 0 -2 -3 1 -2 -4 -5 -3 -1 -3 -2 2
1 1 1 1 0 0 -0 -0 -0 0 -3 -0 -3 -2 -1 -1 -1 1 0 -1 -1 2 -0 -1 -1 -0 -2 -0 -1 -2 -3 -1 1 1 -1 -3 -3 0 1 1 1 -1 -1
-1 -0 -1 -1 -1 -2 -2 -2 -2 -0 -3 -2 -1 -2 -1 -0 0 -2 -1 -1 -1 -0 0 -0 -1 1 -0 1 -2 -1 -1 0 -1 -0 -1 1 0 1 0 -2 -2 0 -1
-0 -0 -2 -1 -0 -1 -1 -3 -1 -1 -3 -1 -0 -1 1 -3 -1 -1 -2 -1 -1 1 -0 0 1 -2 -0 1 1 -0 -1 -2 1 -2 -1 -1 -1 -2 -1 -0 -2 -1 1
-1 -2 -1 -1 -0 -1 -2 -2 -2 -1 -2 -0 0 -1 -2 -1 -0 -1 -2 -2 -1 -1 -1 -1 -0 2 2 0 -1 -3 -3 0 -2 -1 -1 -1 -2 -1 -2 -2 -2 2 -1
0 -2 -1 -1 -1 -2 -1 -2 -1 -3 -1 -1 -1 -1 -2 0 -0 1 -1 -2 -2 -1 -1 -2 -0 0 -2 0 0 -2 -1 -2 0 -2 -2 -3 -3 -2 -3 -4 -3 0 0
-1 -1 -2 -1 -2 -0 1 -4 -0 -3 -1 -0 -0 -0 -1 0 -1 0 -0 -1 -1 -2 -1 -0 -1 -1 -1 -1 -3 -2 -2 -1 -2 -0 -5 -3 0 -1 -1 -3 -3 -4 -2
-0 -1 -2 -1 -0 -0 -2 -1 -2 -1 0 -0 -1 1 -1 -0 -1 -1 -1 -1 -0 -1 0 1 -2 -2 -0 -1 1 3 -3 -2 -5 -2 -1 -2 -1 -0 -0 -3 -3 -3 -2
-1 -1 -1 -0 -1 -1 -1 -1 -1 -0 -0 2 0 -1 -1 -1 -1 -0 -0 -0 0 -0 -1 -2 -0 1 -2 -0 -0 -1 0 2 -1 -1 -1 1 -2 -1 2 -1 -4 -1 -3
-1 1 -1 -1 -1 -1 0 -1 -0 -1 -2 -1 -1 -1 -1 -1 -1 -1 -0 -1 -1 -1 -1 -1 -3 -1 0 -2 -4 -2 -2 -3 -2 1 -1 -3 -3 -3 -1 -2 -1 0 0
0 0 -0 0 -0 -0 -1 -0 -1 -1 -1 -1 -1 -1 -1 -1 -1 -1 -1 -1 -0 -1 -2 -3 -2 -0 -0 -1 0 -2 -4 -5 -4 -5 1 7 6 -4 -5 -5 -2 -3 -1
-0 -1 -1 1 -1 -1 0 -1 -1 -1 -1 -1 -1 -0 0 0 -1 -0 -1 -1 -1 -1 -2 -1 -1 -1 -2 -1 -2 -1 1 1 -2 -4 -4 -1 -5 5 1 -1 -2 0 2
Height
3189 3191 3192 3193 3193 3194 3193 3193 3193 3193 3192 3192 3192 3191 3191 3190 3190 3189 3188 3187 3187 3186 3185 3184 3184 3183 3182 3181 3180 3179 3178 3178 3177 3176 3175 3175 3174 3174 3173 3174 3173 3174 3174
3190 3191 3192 3192 3193 3193 3193 3193 3192 3192 3192 3191 3191 3190 3190 3190 3189 3189 3188 3188 3187 3186 3185 3184 3183 3183 3182 3181 3181 3180 3179 3178 3177 3176 3175 3174 3173 3173 3172 3173 3172 3172 3172
3189 3191 3191 3192 3192 3192 3192 3192 3192 3192 3191 3190 3190 3189 3189 3188 3188 3187 3187 3187 3186 3185 3184 3183 3182 3182 3181 3180 3180 3179 3179 3178 3177 3176 3175 3174 3173 3172 3172 3171 3171 3171 3171
3188 3190 3191 3191 3192 3191 3191 3191 3191 3190 3190 3189 3188 3188 3187 3187 3186 3186 3185 3185 3184 3184 3183 3182 3181 3181 3180 3180 3179 3178 3177 3176 3176 3175 3174 3174 3173 3172 3172 3171 3170 3169 3169
3188 3189 3190 3190 3190 3190 3189 3189 3188 3188 3188 3187 3186 3185 3184 3184 3184 3183 3183 3183 3182 3182 3181 3180 3180 3179 3178 3178 3177 3176 3176 3175 3174 3173 3173 3172 3172 3171 3170 3169 3169 3168 3168
3188 3188 3189 3190 3190 3189 3188 3187 3187 3186 3186 3185 3184 3183 3182 3181 3181 3181 3181 3180 3180 3179 3179 3178 3178 3177 3176 3176 3175 3174 3174 3173 3173 3172 3171 3170 3170 3170 3168 3167 3167 3166 3166
3186 3187 3188 3188 3188 3187 3187 3186 3185 3185 3184 3183 3182 3181 3180 3179 3178 3178 3177 3177 3176 3176 3176 3175 3174 3174 3173 3172 3172 3171 3171 3170 3170 3169 3169 3168 3167 3167 3166 3165 3165 3164 3163
3186 3186 3186 3186 3186 3185 3184 3184 3183 3182 3181 3180 3180 3179 3178 3177 3176 3175 3174 3173 3173 3172 3171 3171 3171 3170 3169 3169 3168 3168 3167 3166 3166 3166 3165 3165 3164 3164 3163 3162 3162 3161 3161
3184 3184 3185 3184 3183 3183 3182 3181 3181 3180 3179 3178 3177 3176 3175 3173 3173 3172 3171 3169 3168 3167 3166 3166 3166 3165 3165 3164 3164 3163 3162 3161 3161 3162 3161 3160 3160 3160 3160 3159 3159 3158 3157
3183 3183 3182 3182 3181 3181 3180 3179 3179 3178 3177 3176 3175 3174 3171 3170 3169 3168 3167 3165 3164 3163 3162 3161 3161 3160 3159 3159 3158 3157 3156 3156 3156 3156 3156 3156 3155 3155 3156 3155 3154 3154 3154
3181 3180 3180 3179 3178 3178 3177 3177 3176 3175 3174 3173 3172 3170 3169 3167 3165 3164 3162 3161 3159 3158 3157 3156 3155 3154 3153 3153 3152 3151 3150 3150 3150 3150 3150 3150 3150 3150 3150 3150 3150 3150 3149
3178 3178 3178 3177 3177 3176 3175 3174 3173 3172 3171 3169 3169 3167 3164 3163 3161 3159 3157 3155 3154 3152 3151 3149 3148 3148 3146 3145 3144 3143 3143 3143 3143 3143 3144 3144 3144 3144 3144 3144 3144 3144 3144
3175 3176 3176 3175 3175 3174 3173 3172 3170 3169 3167 3166 3164 3162 3160 3158 3157 3154 3152 3150 3149 3147 3146 3144 3142 3141 3140 3139 3138 3137 3137 3137 3137 3137 3137 3138 3138 3137 3137 3136 3137 3137 3137
3173 3173 3173 3173 3172 3171 3170 3169 3167 3165 3164 3162 3159 3157 3155 3153 3152 3150 3148 3146 3144 3142 3141 3139 3137 3136 3134 3133 3133 3132 3130 3130 3130 3130 3131 3131 3131 3131 3129 3129 3129 3130 3130
3170 3170 3171 3170 3169 3168 3166 3165 3163 3161 3159 3157 3154 3152 3151 3149 3147 3145 3144 3143 3140 3138 3137 3135 3133 3132 3130 3129 3128 3127 3127 3126 3125 3124 3124 3123 3122 3121 3121 3122 3123 3123 3123
3168 3168 3168 3167 3165 3164 3162 3161 3160 3157 3153 3153 3149 3148 3146 3144 3142 3141 3140 3137 3135 3134 3132 3130 3129 3128 3127 3126 3124 3122 3121 3121 3120 3118 3117 3115 3113 3112 3113 3114 3115 3115 3116
3166 3166 3165 3164 3162 3161 3159 3157 3156 3153 3148 3147 3146 3143 3141 3140 3139 3137 3135 3133 3131 3129 3128 3126 3124 3124 3123 3122 3120 3119 3117 3115 3113 3112 3110 3109 3107 3106 3106 3106 3106 3106 3107
3163 3163 3162 3160 3159 3157 3154 3152 3151 3148 3142 3141 3141 3138 3138 3136 3135 3132 3131 3129 3127 3126 3124 3123 3122 3121 3119 3118 3117 3115 3112 3111 3110 3108 3106 3104 3101 3099 3098 3098 3098 3097 3097
3159 3159 3158 3156 3154 3152 3149 3146 3144 3141 3138 3136 3135 3134 3134 3133 3131 3130 3128 3126 3125 3123 3121 3120 3119 3118 3117 3115 3113 3111 3109 3109 3107 3104 3102 3099 3097 3095 3094 3092 3090 3090 3090
3156 3155 3153 3152 3149 3147 3144 3140 3139 3136 3135 3133 3132 3131 3130 3129 3128 3127 3125 3123 3121 3119 3118 3117 3116 3115 3113 3112 3110 3107 3106 3105 3103 3100 3097 3094 3092 3090 3088 3086 3083 3082 3082
3152 3151 3150 3148 3146 3143 3141 3137 3136 3134 3131 3130 3128 3128 3127 3126 3124 3123 3121 3120 3119 3117 3116 3114 3113 3112 3111 3110 3108 3105 3103 3102 3100 3097 3093 3091 3088 3086 3085 3081 3078 3076 3077
3148 3147 3146 3144 3142 3140 3138 3136 3133 3130 3129 3127 3126 3125 3124 3123 3121 3120 3119 3117 3116 3115 3113 3112 3110 3109 3109 3107 3106 3102 3099 3097 3095 3092 3088 3086 3083 3081 3078 3075 3073 3071 3071
3144 3144 3142 3140 3139 3137 3135 3133 3130 3128 3126 3125 3124 3122 3121 3120 3119 3117 3116 3115 3113 3111 3110 3108 3107 3106 3104 3103 3102 3100 3096 3094 3090 3088 3085 3083 3079 3077 3074 3071 3069 3066 3065
3140 3140 3138 3137 3136 3134 3132 3129 3127 3125 3123 3122 3121 3120 3118 3117 3116 3114 3113 3112 3109 3108 3106 3105 3104 3102 3100 3098 3096 3094 3092 3090 3087 3085 3080 3078 3073 3070 3067 3065 3065 3063 3059
3137 3135 3135 3134 3132 3130 3128 3125 3123 3121 3120 3119 3117 3116 3115 3114 3113 3111 3110 3108 3106 3104 3102 3101 3099 3098 3097 3095 3092 3089 3085 3083 3080 3079 3077 3075 3070 3064 3059 3057 3057 3055 3053
3133 3133 3132 3130 3128 3126 3123 3121 3120 3118 3117 3116 3114 3113 3112 3110 3109 3107 3105 3104 3102 3100 3098 3097 3095 3093 3091 3089 3087 3085 3082 3078 3074 3071 3070 3068 3066 3062 3054 3049 3049 3048 3047